[[{"header":{"parameterUnit":"m.s-1","parameterCategory":1,"la1":30.2992,"la2":30.254,"lo1":-89.0895,"lo2":-89.0443,"dy":0.0025,"dx":0.0025,"nx":19,"ny":19,"refTime":"2026-03-14T09:00:00:Z","depth":0,"parameterNumber":2,"parameterNumberName":"U-component_of_WINDS"},"data":[0,0,0,-1.9599,-1.9602,-1.9738,-1.9739,-1.9906,-1.9908,0,0,0,0,0,0,0,0,0,0,0,-1.9555,-1.9556,-1.9599,-1.9602,-1.9738,-1.9739,-1.9906,-1.9908,0,0,0,0,0,0,0,0,0,0,0,-1.9554,-1.9555,-1.9557,-1.9603,-1.9738,-1.9739,-1.9906,-1.9806,0,0,0,0,0,0,0,0,0,0,-1.9675,-1.9629,-1.9555,-1.9557,-1.9604,-1.9738,-1.9739,-1.9801,-1.9812,-1.9842,0,-1.9866,0,-1.989,-1.9918,-1.9919,0,0,0,-1.9606,-1.962,-1.966,-1.9557,-1.9605,-1.9738,-1.9678,-1.9807,-1.9819,-1.9856,-1.9869,-1.9875,-1.9892,-1.9919,-1.992,-2.0079,-2.0079,0,0,-1.9599,-1.9577,-1.9652,-1.9668,-1.9646,-1.9674,-1.9682,-1.9815,-1.9827,-1.987,-1.9879,-1.9895,-1.9921,-1.9922,-2.0078,-2.0079,0,0,0,-1.9575,-1.9571,-1.9609,-1.9661,-1.9686,-1.9677,-1.9687,-1.9822,-1.9836,-1.9881,-1.9897,-1.9921,-1.9923,-2.0078,-2.0079,-2.0085,0,0,0,-1.957,-1.9558,-1.9606,-1.9594,-1.9683,-1.9755,-1.9691,-1.9826,-1.9842,-1.9896,-1.9922,-1.9925,-2.0077,-2.0078,-2.0084,-2.0092,0,0,0,-1.9547,-1.9555,-1.9573,-1.9592,-1.965,-1.9754,-1.9775,-1.983,-1.9852,-1.9919,-1.9925,-2.0077,-2.0078,-2.0082,-2.009,-2.0127,0,0,0,-1.9517,-1.9578,-1.9573,-1.9647,-1.9649,-1.9757,-1.9775,-1.9857,-1.9915,-1.9922,-2.0077,-2.0079,-2.0082,-2.0089,-2.0125,-2.0154,-2.0164,0,0,-1.9581,-1.9585,-1.963,-1.9629,-1.9733,-1.9738,-1.9842,-1.9917,-1.9944,-2.0032,-2.0037,-2.0084,-2.009,-2.0127,-2.0227,-2.0235,0,0,0,-1.9643,-1.9675,-1.9707,-1.9762,-1.982,-1.987,-1.9931,-1.9959,-2.0035,-1.9985,-2.0109,-2.0113,-2.0135,-2.015,-2.0156,-2.0177,-2.0084,-2.0084,-2.0084,-1.9703,-1.9733,-1.981,-1.9857,-1.9909,-1.9971,-2.0017,-2.0064,-2.008,-2.0109,-2.0135,-2.0193,-2.0209,-2.0214,-2.0235,-2.0153,-2.0153,-2.0153,-2.0153,-1.98,-1.9851,-1.9869,-1.995,-1.9982,-2.0051,-2.0113,-2.0121,-2.019,-2.0176,-2.0197,-2.0178,-2.0221,-2.0241,-2.0154,-2.0154,-2.0154,-2.0154,-2.0154,-1.9843,-1.9872,-1.9904,-1.9986,-2.0045,-2.009,-2.0155,-2.0182,-2.0208,-2.0229,-2.0259,-2.0259,-2.0262,-2.0242,-2.0242,-2.0242,-2.0242,-2.0242,-2.0243,-1.9874,-1.991,-1.9961,-2.0027,-2.0065,-2.0119,-2.0181,-2.022,-2.027,-2.0284,-2.0285,-2.0297,-2.022,-2.02,-2.0246,-2.0245,-2.0245,-2.0244,-2.0244,-1.9961,-1.9946,-2.0024,-2.0062,-2.0142,-2.0198,-2.0232,-2.0308,-2.0344,-2.0375,-2.0383,-2.0322,-2.0327,-2.0322,-2.0306,-2.0376,-2.0376,-2.0376,-2.0376,-1.9997,-2.0002,-2.0088,-2.0147,-2.0208,-2.0245,-2.0333,-2.0382,-2.0431,-2.0455,-2.0449,-2.0429,-2.0423,-2.0432,-2.0425,-2.041,-2.0505,-2.0505,-2.0506,-2.0052,-2.0064,-2.0133,-2.0179,-2.0243,-2.0298,-2.0381,-2.0448,-2.05,-2.0511,-2.0474,-2.0469,-2.0438,-2.0426,-2.0436,-2.0424,-2.0397,0,0]},{"header":{"parameterUnit":"m.s-1","parameterCategory":1,"la1":30.2992,"la2":30.254,"lo1":-89.0895,"lo2":-89.0443,"dy":0.0025,"dx":0.0025,"nx":19,"ny":19,"refTime":"2026-03-14T09:00:00:Z","depth":0,"parameterNumber":3,"parameterNumberName":"V-component_of_WINDS"},"data":[0,0,0,2.3612,2.3614,2.3749,2.375,2.3923,2.3925,0,0,0,0,0,0,0,0,0,0,0,2.3575,2.3577,2.3611,2.3615,2.3749,2.375,2.3923,2.3925,0,0,0,0,0,0,0,0,0,0,0,2.3575,2.3576,2.3578,2.3615,2.3749,2.375,2.3923,2.382,0,0,0,0,0,0,0,0,0,0,2.3689,2.366,2.3576,2.3578,2.3616,2.3749,2.375,2.3815,2.3826,2.3864,0,2.39,0,2.3915,2.3937,2.3938,0,0,0,2.3612,2.365,2.3683,2.3578,2.3617,2.3749,2.3688,2.3821,2.3834,2.3879,2.3903,2.3909,2.3918,2.3938,2.3939,2.4169,2.417,0,0,2.3604,2.3601,2.3674,2.3692,2.3674,2.3683,2.3692,2.3829,2.3854,2.3903,2.3913,2.3921,2.3939,2.3941,2.4168,2.4169,0,0,0,2.3585,2.3596,2.3626,2.3685,2.3709,2.3687,2.3697,2.3848,2.3858,2.3915,2.3923,2.394,2.3942,2.4166,2.4168,2.4224,0,0,0,2.358,2.3585,2.3622,2.3622,2.3707,2.3781,2.3713,2.3848,2.3864,2.3922,2.394,2.3944,2.4165,2.4167,2.422,2.4251,0,0,0,2.3565,2.3583,2.3604,2.3621,2.3679,2.3778,2.3796,2.3852,2.3869,2.3938,2.3945,2.4164,2.4167,2.4216,2.4245,2.4309,0,0,0,2.3548,2.3652,2.3605,2.3724,2.3678,2.3813,2.3795,2.3896,2.3962,2.3941,2.4165,2.4168,2.4215,2.4241,2.4305,2.4361,2.4385,0,0,2.3678,2.3668,2.3739,2.37,2.3842,2.3793,2.3943,2.4006,2.4015,2.4116,2.4122,2.4221,2.4244,2.4308,2.4523,2.4542,0,0,0,2.3779,2.3829,2.3868,2.393,2.3981,2.4026,2.4067,2.4089,2.4176,2.4067,2.4263,2.4277,2.4314,2.4341,2.4357,2.4389,2.4181,2.4181,2.418,2.3957,2.3963,2.408,2.4102,2.4163,2.4202,2.4251,2.4288,2.4277,2.4323,2.4353,2.4483,2.4514,2.4527,2.4559,2.4385,2.4385,2.4385,2.4385,2.4147,2.4218,2.42,2.4306,2.4311,2.44,2.4441,2.443,2.4512,2.4461,2.4495,2.4437,2.4547,2.4576,2.439,2.4389,2.4388,2.4388,2.4388,2.4263,2.4298,2.4325,2.4414,2.4482,2.45,2.4579,2.4581,2.4583,2.4617,2.4646,2.4645,2.4643,2.4631,2.4631,2.4632,2.4632,2.4633,2.4633,2.4372,2.44,2.4468,2.4529,2.4568,2.462,2.466,2.4698,2.474,2.4735,2.4735,2.4717,2.4558,2.4516,2.464,2.4639,2.4638,2.4637,2.4637,2.4559,2.4517,2.4621,2.466,2.4731,2.4796,2.4798,2.4875,2.4906,2.4945,2.492,2.4803,2.4792,2.4779,2.4745,2.492,2.492,2.492,2.492,2.4656,2.4651,2.4756,2.4818,2.4879,2.489,2.5004,2.5035,2.506,2.508,2.5055,2.501,2.4997,2.4994,2.4977,2.4944,2.5166,2.5167,2.5167,2.477,2.4771,2.4868,2.4893,2.4948,2.4995,2.5101,2.5171,2.5191,2.5177,2.5094,2.5084,2.5011,2.4988,2.4971,2.4944,2.4885,0,0]}]]